Change the Weather History Date:

Sunday, June 16, 2013

  Actual Average Record
Temperature  
Mean Temperature 66 °F -  
Max Temperature 68 °F - - ()
Min Temperature 64 °F - - ()
Cooling Degree Days 1    
Growing Degree Days 16 (Base 50)    
Moisture  
Dew Point 54 °F    
Average Humidity 64    
Maximum Humidity 73    
Minimum Humidity 50    
Precipitation  
Precipitation 0.00 in - - ()
Sea Level Pressure  
Sea Level Pressure 29.95 in    
Wind  
Wind Speed 14 mph ()    
Max Wind Speed 18 mph    
Max Gust Speed -    
T = Trace of Precipitation, MM = Missing Value Source: Averaged Metar Reports

Daily Weather History Graph

Daily Weather History Graph

Search for Another Location

Airport or City:

Trip Planner

Search our weather history database for the weather conditions in past years. The results will help you decide how hot, cold, wet, or windy it might be!

Date:

Astronomy

Jun. 16, 2013 Rise Set
Actual Time 6:37 AM AEST 5:31 PM AEST
Civil Twilight 6:13 AM AEST 5:56 PM AEST
Nautical Twilight 5:46 AM AEST 6:23 PM AEST
Astronomical Twilight 5:18 AM AEST 6:50 PM AEST
Moon 11:34 AM AEST (6/16) 11:56 PM AEST (6/16)
Length of Visible Light 11h 42m
Length of Day
10h 54m
Waxing Crescent, 43% of the Moon is Illuminated
Jun 16
Waxing Crescent
Jun 17
First Quarter
Jun 23
Full
Jun 30
Last Quarter
Jul 8
New

Hourly Weather History & Observations

Time (AEST) Temp. Dew Point Humidity Pressure Visibility Wind Dir Wind Speed Gust Speed Precip Events Conditions
12:00 AM 66 °F 52 °F 50% 29.99 in - SE 15.0 mph - -  
12:00 AM 66.2 °F 51.8 °F 60% 29.98 in - SE 15.0 mph - N/A   Unknown
12:30 AM 66.2 °F 50.0 °F 56% 29.98 in - SSE 17.3 mph - N/A   Unknown
1:00 AM 66.2 °F 51.8 °F 60% 29.98 in - SSE 16.1 mph - N/A   Unknown
1:30 AM 64.4 °F 51.8 °F 64% 29.98 in - South 13.8 mph - N/A   Unknown
2:00 AM 64.4 °F 50.0 °F 59% 29.98 in - South 15.0 mph - N/A   Unknown
2:30 AM 64.4 °F 51.8 °F 64% 29.95 in - South 13.8 mph - N/A   Unknown
3:00 AM 65 °F 51 °F 51% 29.96 in - SSE 15.0 mph - -  
3:00 AM 64.4 °F 51.8 °F 64% 29.95 in - SSE 15.0 mph - N/A   Unknown
3:30 AM 64.4 °F 51.8 °F 64% 29.95 in - SSE 13.8 mph - N/A   Unknown
4:00 AM 64.4 °F 51.8 °F 64% 29.95 in - South 15.0 mph - N/A   Unknown
4:30 AM 64.4 °F 50.0 °F 59% 29.95 in - South 16.1 mph - N/A   Unknown
5:00 AM 64.4 °F 53.6 °F 68% 29.95 in - SSE 18.4 mph - N/A   Unknown
5:30 AM 64.4 °F 53.6 °F 68% 29.95 in - SSE 18.4 mph - N/A   Unknown
6:00 AM 65 °F 54 °F 59% 29.97 in - SE 18.4 mph - -  
6:00 AM 64.4 °F 53.6 °F 68% 29.95 in - SE 18.4 mph - N/A   Unknown
6:30 AM 64.4 °F 51.8 °F 64% 29.98 in - SE 17.3 mph - N/A   Unknown
7:00 AM 66.2 °F 51.8 °F 60% 29.98 in - SE 16.1 mph - N/A   Unknown
7:30 AM 66.2 °F 53.6 °F 64% 29.98 in - SE 17.3 mph - N/A   Unknown
8:00 AM 68.0 °F 55.4 °F 64% 29.98 in - SE 17.3 mph - N/A   Unknown
8:30 AM 66.2 °F 53.6 °F 64% 30.01 in - SSE 17.3 mph - N/A   Unknown
9:00 AM 67 °F 56 °F 58% 30.01 in - SSE 16.1 mph - -  
9:00 AM 66.2 °F 55.4 °F 68% 30.01 in - SSE 16.1 mph - N/A   Unknown
9:30 AM 68.0 °F 57.2 °F 68% 30.01 in - SSE 16.1 mph - N/A   Unknown
10:00 AM 68.0 °F 55.4 °F 64% 30.01 in - SSE 17.3 mph - N/A   Unknown
10:30 AM 68.0 °F 55.4 °F 64% 30.01 in - SSE 17.3 mph - N/A   Unknown
11:00 AM 68.0 °F 57.2 °F 68% 29.98 in - SSE 18.4 mph - N/A   Unknown
11:30 AM 68.0 °F 57.2 °F 68% 29.98 in - SSE 18.4 mph - N/A   Unknown
12:00 PM 67 °F 57 °F 61% 29.97 in - SSE 17.3 mph - -  
12:00 PM 68.0 °F 57.2 °F 68% 29.95 in - SSE 17.3 mph - N/A   Unknown
12:30 PM 68.0 °F 57.2 °F 68% 29.95 in - SSE 17.3 mph - N/A   Unknown
1:00 PM 68.0 °F 57.2 °F 68% 29.92 in - SSE 17.3 mph - N/A   Unknown
1:30 PM 68.0 °F 59.0 °F 73% 29.92 in - SE 16.1 mph - N/A   Unknown
2:00 PM 68.0 °F 57.2 °F 68% 29.89 in - SE 15.0 mph - N/A   Unknown
2:30 PM 68.0 °F 55.4 °F 64% 29.89 in - SE 13.8 mph - N/A   Unknown
3:00 PM 67 °F 56 °F 59% 29.90 in - SE 11.5 mph - -  
3:00 PM 66.2 °F 55.4 °F 68% 29.89 in - SE 11.5 mph - N/A   Unknown
3:30 PM 66.2 °F 53.6 °F 64% 29.89 in - SE 10.4 mph - N/A   Unknown
4:00 PM 66.2 °F 51.8 °F 60% 29.89 in - SE 9.2 mph - N/A   Unknown
4:30 PM 66.2 °F 53.6 °F 64% 29.89 in - SE 9.2 mph - N/A   Unknown
5:00 PM 66.2 °F 51.8 °F 60% 29.89 in - East 8.1 mph - N/A   Unknown
5:30 PM 64.4 °F 53.6 °F 68% 29.89 in - ESE 9.2 mph - N/A   Unknown
6:00 PM 65 °F 51 °F 51% 29.91 in - ESE 9.2 mph - -  
6:00 PM 64.4 °F 51.8 °F 64% 29.89 in - ESE 9.2 mph - N/A   Unknown
6:30 PM 64.4 °F 51.8 °F 64% 29.92 in - ESE 11.5 mph - N/A   Unknown
7:00 PM 66.2 °F 53.6 °F 64% 29.92 in - ESE 11.5 mph - N/A   Unknown
7:30 PM 64.4 °F 53.6 °F 68% 29.92 in - ESE 12.7 mph - N/A   Unknown
8:00 PM 66.2 °F 53.6 °F 64% 29.95 in - ESE 10.4 mph - N/A   Unknown
8:30 PM 66.2 °F 53.6 °F 64% 29.95 in - East 11.5 mph - N/A   Unknown
9:00 PM 65 °F 53 °F 56% 29.95 in - ESE 10.4 mph - -  
9:00 PM 66.2 °F 53.6 °F 64% 29.95 in - ESE 10.4 mph - N/A   Unknown
9:30 PM 64.4 °F 55.4 °F 73% 29.95 in - SE 10.4 mph - N/A   Unknown
10:00 PM 64.4 °F 55.4 °F 73% 29.95 in - SE 10.4 mph - N/A   Unknown
10:30 PM 66.2 °F 55.4 °F 68% 29.95 in - SE 11.5 mph - N/A   Unknown
11:00 PM 64.4 °F 55.4 °F 73% 29.95 in - SE 10.4 mph - N/A   Unknown
11:30 PM 64.4 °F 53.6 °F 68% 29.95 in - SE 9.2 mph - N/A   Unknown